Probability
0 0 0 0 0 0 0 0 1 1 1 0 0 0 1 1 1 0 0 0 0 0 0 0 0 0 0 0 0 0 0 0 0 0 0 0 0 0
0 0 0 0 0 0 0 0 0 0 0 0 0 0 0 0 0 0 0 0 0 0 0 0 0 0 0 0 0 0 0 0 0 0 0 0 0 0
0 0 0 0 0 0 0 0 0 0 0 1 0 0 0 0 0 0 0 0 0 0 0 0 0 0 0 0 0 0 0 0 0 0 0 0 0 0
0 0 0 0 0 0 0 0 0 0 0 0 0 0 0 0 0 0 0 0 0 0 0 0 0 0 0 0 0 0 0 0 0 0 0 0 0 0
0 0 0 0 0 0 0 0 0 0 0 0 0 0 0 0 0 0 0 0 0 0 0 0 0 0 0 0 0 0 0 0 0 0 0 0 0 0
0 0 0 0 0 0 0 0 0 0 0 0 0 0 0 0 0 0 0 0 0 0 0 0 0 0 0 0 0 0 0 0 0 0 0 0 0 0
0 0 0 0 0 0 0 0 0 0 0 0 0 0 0 0 0 0 0 0 0 0 0 0 0 0 0 0 0 0 0 0 0 0 0 0 0 0
0 0 0 0 0 0 0 0 0 0 0 0 0 0 0 0 0 0 0 0 0 0 0 0 0 0 0 0 0 0 0 0 0 0 0 0 0 0
0 0 0 0 0 0 0 0 0 0 0 0 0 0 0 0 0 0 0 0 0 0 0 0 0 0 0 0 0 0 0 0 0 0 0 0 0 0
0 0 0 0 0 0 0 0 0 0 0 0 0 0 0 0 0 0 0 0 0 0 0 0 0 0 0 0 0 0 0 0 0 0 0 0 0 0
0 0 0 0 0 0 0 0 0 0 0 0 0 0 0 0 0 0 0 0 0 0 0 0 0 0 0 0 0 0 0 0 0 0 0 0 0 0
0 0 0 0 0 0 0 0 0 0 0 0 0 0 0 0 0 0 0 0 0 0 0 0 0 0 0 0 0 0 0 0 0 0 0 0 0 0
0 0 0 0 0 0 0 0 0 0 0 0 0 0 0 0 0 0 0 0 0 0 0 0 0 0 0 0 0 0 0 0 0 0 0 0 0 0
0 0 0 0 0 0 0 0 0 0 0 0 0 0 0 0 0 0 0 0 0 0 0 0 0 0 0 0 0 0 0 0 0 0 0 0 0 0
0 0 0 0 0 0 0 0 0 0 0 0 0 0 0 0 0 0 0 0 0 0 0 0 0 0 0 0 0 0 0 0 0 0 0 0 0 0
0 0 0 0 0 0 0 0 0 0 0 0 0 0 0 0 0 0 0 0 0 0 0 0 0 0 0 0 0 0 0 0 0 0 0 0 0 0
0 0 0 0 0 0 0 0 0 0 0 0 0 0 0 0 0 0 0 0 0 0 0 0 0 0 0 0 0 0 0 0 0 0 0 0 0 0
0 0 0 0 0 0 0 0 0 0 0 0 0 0 0 0 0 0 0 0 0 0 0 0 0 0 0 0 0 0 0 0 0 0 0 0 0 0
0 0 0 0 0 0 0 0 0 0 0 0 0 0 0 0 0 0 0 0 0 0 0 0 0 0 0 0 0 0 0 0 0 0 0 0 0 0
0 0 0 0 0 0 0 0 0 0 0 0 0 0 0 0 0 0 0 0 0 0 0 0 0 0 0 0 0 0 0 0 0 0 0 0 0 0
0 0 0 0 0 0 0 0 0 0 0 0 0 0 0 0 0 0 0 0 0 0 0 0 0 0 0 0 0 0 0 0 0 0 0 0 0 0
0 0 0 0 0 0 0 0 0 0 0 0 0 0 0 0 0 0 0 0 0 0 0 0 0 0 0 0 0 0 0 0 0 0 0 0 0 0
0 0 0 0 0 0 0 0 0 0 0 0 0 0 0 0 0 0 0 0 0 0 0 0 0 0 0 0 0 0 0 0 0 0 0 0 0 0
Wind_Speed
4 5 4 3 4 4 4 5 5 5 4 4 2 2 3 3 4 4 4 4 6 6 6 6 7 7 8 8 10 8 7 7 7 8 8 9 9 9
3 4 4 3 3 4 4 4 5 5 5 3 3 3 4 3 4 4 4 5 5 5 5 6 6 6 7 8 8 7 7 7 8 8 8 8 9 9
4 4 4 4 3 3 3 3 4 4 5 4 3 4 4 4 3 3 3 3 3 4 5 6 6 6 7 6 6 7 7 7 7 7 7 8 8 8
4 4 4 3 4 3 3 4 4 4 4 5 4 4 4 3 3 3 3 3 3 4 5 6 6 5 5 5 6 7 7 7 7 7 7 8 8 8
4 4 5 4 4 4 4 4 3 3 3 4 4 4 3 2 3 3 3 3 3 3 4 3 4 4 5 5 5 6 7 6 6 6 7 8 8 8
4 4 4 4 5 5 4 4 3 3 3 3 3 3 3 2 2 2 2 3 3 3 3 3 3 4 4 5 5 6 6 6 6 6 7 8 8 8
4 4 4 4 4 4 3 3 3 3 3 3 3 3 2 1 2 2 2 3 3 2 3 3 3 3 3 3 4 5 6 7 7 7 7 8 8 8
4 4 3 4 4 3 4 4 4 4 4 3 3 3 3 2 2 2 2 2 2 2 3 4 3 3 3 3 5 6 6 6 6 7 7 7 7 7
4 3 3 2 3 3 3 4 4 4 5 4 4 4 3 2 2 2 2 3 3 3 3 3 3 3 3 3 6 6 6 7 7 7 7 7 8 8
3 3 3 3 3 2 2 2 2 3 3 3 3 3 2 2 2 2 2 2 2 2 3 2 3 4 4 4 5 6 6 6 6 6 7 7 8 8
2 3 3 3 3 3 3 3 2 2 2 2 3 2 1 1 2 1 1 1 2 2 2 2 3 4 4 3 3 6 7 6 6 6 6 7 8 7
2 2 3 3 2 2 3 2 2 2 1 1 1 0 0 0 1 1 1 2 1 1 1 1 2 3 3 3 4 4 4 5 7 7 7 7 7 4
2 1 1 2 2 1 2 2 1 1 1 1 1 0 1 1 1 2 2 2 2 2 2 2 2 2 2 3 4 4 4 4 5 5 5 6 7 5
2 2 1 1 1 1 1 1 1 0 1 1 0 1 1 1 2 2 2 2 2 2 2 2 2 2 2 3 4 4 4 4 4 4 4 5 5 6
1 1 1 1 1 1 0 0 0 0 1 1 0 1 1 2 1 2 2 2 3 3 2 3 2 2 3 3 3 4 4 4 3 4 4 4 3 3
1 1 1 1 1 0 0 1 1 1 1 1 1 1 1 1 1 1 1 2 2 3 4 4 3 3 2 3 3 3 3 3 4 4 4 4 3 2
1 1 1 1 1 1 0 1 1 0 1 1 0 0 1 1 1 2 1 2 1 2 3 4 4 3 3 2 2 2 2 3 3 4 4 3 3 3
2 2 2 2 2 1 1 1 1 1 1 1 1 0 0 0 1 1 1 1 1 1 2 2 3 3 2 2 2 2 3 3 4 4 3 3 3 3
2 2 2 2 1 1 1 1 1 1 1 1 1 0 0 0 0 1 1 1 1 1 2 2 3 3 2 3 3 3 3 4 3 3 3 3 3 3
2 2 2 1 1 2 1 1 1 1 1 1 1 0 0 0 0 1 1 1 1 1 2 2 3 3 3 2 2 4 5 4 3 3 3 3 3 3
1 1 1 1 1 2 1 1 1 1 1 1 1 1 1 0 0 0 0 0 1 1 2 2 3 5 3 2 2 3 4 6 5 3 3 2 2 2
1 1 1 1 1 1 1 1 1 1 1 1 1 1 1 1 1 0 0 0 0 1 2 2 3 3 2 2 2 3 4 5 5 6 5 4 2 1
1 1 1 1 1 1 1 1 2 1 1 1 1 1 1 1 0 0 0 0 0 1 1 2 2 2 2 2 2 2 3 4 4 4 5 7 5 4
Wind_Direction
241 241 247 250 250 253 249 246 253 264 269 267 266 272 286 286 289 287 289 299 302 302 307 311 312 311 310 312 317 310 313 309 304 302 304 302 300 300
249 248 251 254 251 249 253 254 249 256 265 275 280 286 286 284 289 287 290 301 301 304 307 310 313 309 314 314 316 315 314 312 307 302 303 305 302 300
249 251 257 260 255 255 252 249 245 250 261 277 282 289 281 285 289 290 297 296 295 306 304 307 308 308 311 318 322 321 317 315 312 309 311 312 310 306
249 252 256 252 249 254 250 247 247 249 252 269 279 284 285 289 296 300 308 304 305 314 306 307 309 318 322 323 331 330 325 322 322 321 318 315 312 308
252 251 252 247 244 248 250 252 252 255 258 263 275 286 288 292 306 314 316 311 309 306 307 316 329 335 335 338 338 335 329 323 320 320 321 320 318 314
254 257 256 252 250 248 250 252 251 254 254 256 267 280 281 298 299 312 323 329 326 328 329 329 327 327 329 331 334 334 327 323 321 321 322 321 318 316
250 254 254 261 269 262 256 248 245 242 245 245 256 267 273 286 298 318 312 327 328 328 326 324 324 324 319 321 325 330 327 323 324 322 321 322 321 319
248 256 259 254 260 268 280 279 266 251 245 240 250 251 263 289 305 302 307 313 316 333 325 324 326 323 324 327 336 331 328 326 328 328 327 326 325 319
244 249 252 254 258 249 253 267 278 286 273 252 246 255 257 269 271 272 280 293 298 307 314 311 319 319 325 329 333 329 332 333 332 333 334 329 322 318
246 248 251 254 253 252 257 257 269 279 277 263 257 268 275 264 253 254 274 300 312 318 309 292 311 318 324 325 337 336 336 335 336 337 334 328 321 317
252 255 256 249 249 253 254 249 261 277 302 298 293 290 287 289 287 219 245 273 301 317 329 308 314 321 317 318 334 339 338 337 336 337 336 333 327 317
231 241 257 262 256 254 253 244 248 264 279 309 311 347 321 262 299 267 240 249 287 289 318 318 306 326 320 318 329 330 334 340 335 333 335 336 332 322
226 239 255 256 258 272 273 268 274 290 259 271 277 338 352 355 343 332 312 267 262 272 275 297 292 302 294 306 317 324 330 334 332 330 336 341 337 329
230 235 243 247 252 279 269 352 13 303 266 267 289 328 344 352 351 344 344 336 325 296 276 285 281 285 292 296 302 318 331 334 333 333 332 333 334 329
236 229 246 252 251 239 225 52 207 261 282 275 290 325 342 348 344 353 6 16 12 359 334 314 303 292 287 282 292 308 322 329 336 335 329 326 325 320
236 205 204 197 221 216 214 226 257 290 273 275 306 329 344 348 346 346 354 13 15 2 2 0 346 320 305 303 293 301 314 316 326 331 327 322 325 329
223 214 208 219 217 209 240 274 274 275 277 286 282 306 336 346 352 357 7 4 358 348 355 1 2 356 341 313 306 312 319 323 321 324 322 324 341 351
209 203 212 223 222 222 230 255 259 247 266 257 248 262 276 300 345 354 11 16 12 357 356 353 352 347 352 13 350 319 330 330 327 329 327 332 349 359
219 216 221 225 225 224 227 241 247 244 240 232 233 235 255 280 330 348 5 15 7 358 352 344 336 341 343 341 345 353 332 324 330 339 343 341 340 347
239 231 229 227 225 228 228 234 229 205 202 211 205 212 221 223 296 337 329 346 352 350 348 346 343 339 329 318 310 323 337 330 335 341 345 349 347 350
253 250 245 237 232 229 226 223 216 206 207 209 200 212 224 216 215 326 317 323 338 336 339 339 340 338 332 331 332 336 346 354 349 339 339 345 347 353
259 256 252 242 235 225 212 205 200 199 199 204 211 218 228 221 201 223 239 224 335 356 351 343 336 336 341 351 353 345 344 352 4 7 4 357 337 336
250 254 250 238 236 224 210 196 195 196 198 197 204 209 201 201 205 196 292 186 80 31 4 350 346 354 360 4 1 355 352 351 358 9 16 18 26 27